星链-30203 (STARLINK-30203 )

导读 | 星芒AI

STARLINK-30203 是 SpaceX 星链(Starlink)卫星互联网项目中的一颗低轨通信卫星。该卫星属于星链计划的第三批部署任务,旨在为全球用户提供高速、低延迟的互联网服务。它运行在约 550 公里的近地轨道上,配备先进通信设备,支持宽带数据传输。作为星链星座的一部分,STARLINK-30203 有助于扩大网络覆盖范围,特别是在偏远和网络基础设施薄弱的地区。该卫星采用可回收发射技术,体现了 SpaceX 在航天成本控制和可持续发展方面的优势。

基本信息
目录编号:
57498
目录名称:
STARLINK-30203
国际标识:
2023-113D
轨道中心:
EARTH
卫星名称:
星链-30203
卫星全名:
星链-30203 (STARLINK-30203 )
卫星状态:
在轨 (已飞行864 天)
发射日期:
2023-08-07 UTC
国别 :
美国 (US)
星等 :
--
轨道信息
数据来源 国际轨道数据 AOE轨道数据
星历时间 2025-12-18T08:13:52+0800
21小时前
查看轨道信息
2025-12-16T11:00:00+0800
2天前
查看轨道信息
半长轴 6937.228km 6937.212km
偏心率 0.000117 0.0001594
轨道倾角 43.002° 43.004°
近地点辐角 275.154° 289.033°
升交点赤经 101.146° 111.387°
平近点角 84.917° 305.170°
近地点 558.281km 557.971km
远地点 559.905km 560.183km
周期 95.838分钟 95.838分钟
每日圈数 15.025324 15.025376
详细信息
固有亮度:
5
最大亮度:
0.3
卫星平台:
Starlink v2.0 mini
覆盖范围:
全球
运营商:
太空探索技术公司
运营商所在国:
美国
制造商(研发单位):
太空探索技术公司
制造商所在国:
美国
使用方式:
暂无
卫星简介
星链(Starlink)计划是由太空探索技术公司(SpaceX)提出的一个巨型低轨卫星互联网星座项目,计划在2019年至2024年间在太空搭建由约1.2万颗卫星组成的“星链”网络,其中1584颗将部署在地球上空550千米处的近地轨道,并从2020年开始工作。该卫星仍在工作。
2D轨道图
3D轨道图
轨道高度分析图
轨道倾角分析图
轨道综合分析图
查看轨道综合分析图